This is the latest recevied weather packets stored in our database for station/object N1IJV-10. If no packets are shown the sender has not sent any weather packets the latest 10 day(s).
| Time | Temp. | Humidity | Pressure | Rain* | Wind** | Luminosity | Snow |
|---|---|---|---|---|---|---|---|
| 1777967803 | 12.78° C | 55% | 1003.2 hPa | 0 mm | - | 0 W/m² | - |
| 1777967500 | 12.78° C | 56% | 1003 hPa | 0 mm | - | 0 W/m² | - |
| 1777967197 | 12.78° C | 56% | 1003 hPa | 0 mm | - | 0 W/m² | - |
| 1777966894 | 13.33° C | 55% | 1003 hPa | 0 mm | - | 0 W/m² | - |
| 1777966591 | 13.33° C | 55% | 1002.8 hPa | 0 mm | - | 0 W/m² | - |
| 1777966289 | 13.33° C | 56% | 1002.7 hPa | 0 mm | - | 0 W/m² | - |
| 1777965984 | 13.33° C | 56% | 1002.8 hPa | 0 mm | - | 0 W/m² | - |
| 1777965682 | 13.33° C | 57% | 1002.8 hPa | 0 mm | - | 0 W/m² | - |
| 1777965377 | 13.33° C | 57% | 1002.7 hPa | 0 mm | - | 0 W/m² | - |
| 1777965075 | 13.33° C | 57% | 1002.6 hPa | 0 mm | - | 0 W/m² | - |
| 1777964772 | 13.33° C | 56% | 1002.6 hPa | 0 mm | - | 0 W/m² | - |
| 1777964468 | 13.33° C | 58% | 1002.5 hPa | 0 mm | - | 0 W/m² | - |
| 1777964164 | 12.78° C | 58% | 1002.3 hPa | 0 mm | - | 0 W/m² | - |
| 1777963861 | 13.33° C | 60% | 1002.3 hPa | 0 mm | - | 0 W/m² | - |
| 1777963558 | 13.33° C | 58% | 1002.3 hPa | 0 mm | - | 0 W/m² | - |
| 1777963257 | 13.89° C | 57% | 1002.5 hPa | 0 mm | - | 0 W/m² | - |
| 1777962953 | 13.89° C | 55% | 1002.2 hPa | 0 mm | - | 0 W/m² | - |
| 1777962649 | 13.89° C | 55% | 1002.3 hPa | 0 mm | - | 0 W/m² | - |
| 1777962346 | 14.44° C | 52% | 1002.4 hPa | 0 mm | - | 0 W/m² | - |
| 1777962043 | 14.44° C | 52% | 1002.2 hPa | 0 mm | - | 0 W/m² | - |
| 1777961740 | 14.44° C | 52% | 1002.3 hPa | 0 mm | - | 0 W/m² | - |
| 1777961438 | 14.44° C | 54% | 1002.1 hPa | 0 mm | - | 0 W/m² | - |
| 1777961136 | 14.44° C | 55% | 1002 hPa | 0 mm | - | 0 W/m² | - |
| 1777960832 | 14.44° C | 55% | 1002.3 hPa | 0 mm | - | 0 W/m² | - |
| 1777960527 | 14.44° C | 54% | 1002.1 hPa | 0 mm | - | 0 W/m² | - |
* Rain latest hour (hover to see other rain measurements)
** Current wind speed in m/s (hover to see current wind gust speed)